Weather History for Preston, MN

Change the Weather History Date:

Monday, March 18, 2013

  Actual Average (KRST) Record (KRST)
Temperature  
Mean Temperature 20 °F 33 °F  
Max Temperature 30 °F 41 °F 80 °F (2012)
Min Temperature 11 °F 25 °F -8 °F (1993)
Degree Days  
Heating Degree Days 44 32  
Month to date heating degree days 642  
Since 1 July heating degree days 6503  
Cooling Degree Days 0 0  
Month to date cooling degree days 0  
Year to date cooling degree days 0  
Moisture  
Dew Point 18 °F    
Average Humidity 85    
Maximum Humidity 95    
Minimum Humidity 74    
Precipitation  
Precipitation 0.05 in 0.06 in 1.49 in (2005)
Month to date precipitation 0.94  
Year to date precipitation 2.63  
Snow  
Snow 0.00 in 0.20 in 19.80 in (2005)
Month to date snowfall 5.8  
Since 1 July snowfall 45.7  
Snow Depth -    
Sea Level Pressure  
Sea Level Pressure 29.72 in    
Wind  
Wind Speed 16 mph (SW)    
Max Wind Speed 31 mph    
Max Gust Speed 39 mph    
Visibility 5 miles    
Events Snow    
T = Trace of Precipitation, MM = Missing Value Source: NWS Daily Summary

Daily Weather History Graph

Daily Weather History Graph

Search for Another Location

Airport:

Trip Planner

Search our weather history database for the weather conditions in past years. The results will help you decide how hot, cold, wet, or windy it might be!

Date:

Astronomy

Mar. 18, 2013 Rise Set
Actual Time 7:15 AM CDT 7:18 PM CDT
Civil Twilight 6:46 AM CDT 7:47 PM CDT
Nautical Twilight 6:12 AM CDT 8:21 PM CDT
Astronomical Twilight 5:38 AM CDT 8:55 PM CDT
Moon 11:04 AM CDT (3/18) 1:29 AM CDT (3/18)
Length of Visible Light 13h 01m
Length of Day
12h 03m
Waxing Crescent, 41% of the Moon is Illuminated
Mar 18
Waxing Crescent
Mar 19
First Quarter
Mar 27
Full
Apr 2
Last Quarter
Apr 10
New

Hourly Weather History & Observations

Time (CDT) Temp. Windchill Dew Point Humidity Pressure Visibility Wind Dir Wind Speed Gust Speed Precip Events Conditions
12:14 AM 26.6 °F 15.7 °F 21.2 °F 80% 29.89 in 10.0 mi SE 12.7 mph 17.3 mph N/A   Overcast
12:54 AM 26.4 °F 16.6 °F 21.2 °F 81% 29.89 in 10.0 mi SE 10.4 mph - N/A   Overcast
1:14 AM 26.2 °F 14.7 °F 21.0 °F 81% 29.87 in 10.0 mi SE 13.8 mph - N/A   Overcast
1:34 AM 26.1 °F 15.0 °F 21.0 °F 81% 29.86 in 10.0 mi SE 12.7 mph - N/A   Overcast
1:54 AM 25.7 °F 14.0 °F 21.0 °F 82% 29.85 in 10.0 mi SE 13.8 mph 18.4 mph N/A   Overcast
2:14 AM 25.7 °F 14.0 °F 21.2 °F 83% 29.83 in 10.0 mi SE 13.8 mph 19.6 mph N/A   Overcast
2:34 AM 25.7 °F 14.0 °F 21.6 °F 84% 29.82 in 10.0 mi SE 13.8 mph - N/A   Overcast
2:54 AM 25.7 °F 13.1 °F 21.7 °F 85% 29.80 in 10.0 mi SE 16.1 mph 20.7 mph N/A   Overcast
3:14 AM 25.7 °F 13.1 °F 21.9 °F 86% 29.79 in 10.0 mi SE 16.1 mph - N/A   Overcast
3:34 AM 25.7 °F 14.6 °F 21.9 °F 86% 29.77 in 10.0 mi SE 12.7 mph 19.6 mph N/A   Overcast
3:54 AM 25.7 °F 13.1 °F 21.7 °F 85% 29.75 in 10.0 mi SE 16.1 mph 21.9 mph N/A   Overcast
4:14 AM 25.5 °F 13.3 °F 21.6 °F 85% 29.74 in 10.0 mi SE 15.0 mph 21.9 mph N/A   Overcast
4:34 AM 25.5 °F 12.0 °F 21.2 °F 84% 29.73 in 10.0 mi SE 18.4 mph 21.9 mph N/A   Overcast
4:54 AM 25.3 °F 13.1 °F 21.2 °F 84% 29.71 in 10.0 mi SE 15.0 mph 18.4 mph N/A   Overcast
5:14 AM 25.3 °F 14.7 °F 21.6 °F 86% 29.72 in 10.0 mi SE 11.5 mph 18.4 mph N/A   Overcast
5:34 AM 25.7 °F 15.7 °F 21.9 °F 86% 29.72 in 10.0 mi SE 10.4 mph - N/A   Overcast
5:55 AM 25.7 °F 15.7 °F 22.1 °F 86% 29.71 in 10.0 mi SE 10.4 mph 17.3 mph N/A   Overcast
6:14 AM 25.7 °F 15.7 °F 22.8 °F 89% 29.71 in 10.0 mi SSE 10.4 mph - N/A   Overcast
6:34 AM 26.2 °F 16.4 °F 23.0 °F 88% 29.72 in 10.0 mi South 10.4 mph - N/A   Overcast
6:54 AM 26.1 °F 16.2 °F 23.5 °F 90% 29.70 in 2.5 mi SSE 10.4 mph - N/A Snow Light Snow
7:15 AM 25.7 °F 16.4 °F 23.9 °F 93% 29.70 in 0.8 mi South 9.2 mph - 0.01 in Snow Light Snow
7:34 AM 25.7 °F 16.4 °F 24.3 °F 94% 29.70 in 1.0 mi South 9.2 mph - 0.01 in Snow Light Snow
7:55 AM 25.5 °F 16.2 °F 24.3 °F 95% 29.69 in 1.2 mi SSE 9.2 mph - 0.01 in Snow Light Snow
8:15 AM 25.7 °F 16.4 °F 24.4 °F 95% 29.68 in 1.0 mi SSE 9.2 mph - N/A Snow Light Snow
8:35 AM 25.7 °F 16.4 °F 24.4 °F 95% 29.67 in 1.8 mi SSE 9.2 mph - N/A Snow Light Snow
8:55 AM 26.2 °F 16.4 °F 24.8 °F 94% 29.66 in 1.5 mi SSE 10.4 mph - 0.01 in Snow Light Snow
9:15 AM 26.6 °F 17.5 °F 24.8 °F 93% 29.65 in 1.0 mi SSE 9.2 mph - N/A Snow Light Snow
9:34 AM 27.0 °F 18.0 °F 25.3 °F 94% 29.65 in 0.5 mi South 9.2 mph - N/A Snow Light Snow
9:55 AM 27.0 °F 18.0 °F 25.5 °F 94% 29.64 in 0.5 mi South 9.2 mph - 0.01 in Snow Snow
10:15 AM 27.1 °F 18.9 °F 25.7 °F 94% 29.64 in 1.0 mi South 8.1 mph - N/A Snow Light Snow
10:35 AM 27.5 °F 19.3 °F 26.2 °F 95% 29.62 in 0.5 mi South 8.1 mph - 0.01 in Snow Light Snow
10:54 AM 28.2 °F 19.5 °F 26.6 °F 94% 29.62 in 1.0 mi South 9.2 mph - 0.01 in Snow Light Snow
11:15 AM 28.6 °F 19.3 °F 27.1 °F 94% 29.61 in 0.8 mi South 10.4 mph - 0.01 in   Overcast
11:35 AM 29.3 °F 20.8 °F 27.7 °F 94% 29.60 in 1.0 mi South 9.2 mph - 0.01 in Snow Light Snow
11:54 AM 30.0 °F 21.1 °F 27.9 °F 92% 29.60 in 1.2 mi SSW 10.4 mph - 0.01 in Snow Light Snow
12:15 PM 26.4 °F 12.1 °F 23.0 °F 87% 29.62 in 2.0 mi WNW 21.9 mph - N/A Snow Light Snow
12:34 PM 24.8 °F 9.3 °F 21.6 °F 87% 29.63 in 4.0 mi West 24.2 mph 28.8 mph N/A   Overcast
12:55 PM 23.0 °F 7.6 °F 19.6 °F 87% 29.63 in 4.0 mi WNW 21.9 mph - N/A   Overcast
1:15 PM 21.9 °F 5.8 °F 18.3 °F 86% 29.64 in 3.0 mi WNW 23.0 mph - N/A   Overcast
1:35 PM 21.2 °F 5.6 °F 16.5 °F 82% 29.64 in 4.0 mi WNW 20.7 mph - N/A   Haze
1:54 PM 21.0 °F 5.0 °F 15.8 °F 80% 29.65 in 5.0 mi WNW 21.9 mph - N/A   Haze
2:14 PM 20.7 °F 3.5 °F 14.9 °F 78% 29.65 in 5.0 mi WNW 25.3 mph 28.8 mph N/A   Haze
2:35 PM 20.3 °F 5.2 °F 14.5 °F 78% 29.65 in 3.0 mi WNW 18.4 mph 31.1 mph N/A   Haze
2:54 PM 21.0 °F 4.3 °F 14.5 °F 76% 29.65 in 4.0 mi WNW 24.2 mph 33.4 mph N/A   Haze
3:15 PM 21.4 °F 4.7 °F 14.9 °F 76% 29.65 in 3.0 mi WNW 24.2 mph 29.9 mph N/A Snow Light Snow
3:34 PM 20.8 °F 3.4 °F 13.8 °F 74% 29.66 in 1.8 mi WNW 26.5 mph 35.7 mph N/A   Haze
3:55 PM 19.4 °F 3.6 °F 13.8 °F 79% 29.67 in 2.5 mi WNW 19.6 mph 29.9 mph N/A Snow Light Snow
4:15 PM 18.5 °F 1.3 °F 13.6 °F 81% 29.68 in 0.5 mi WNW 23.0 mph 29.9 mph N/A Snow Light Snow
4:35 PM 17.6 °F -0.3 °F 12.9 °F 82% 29.69 in 1.2 mi WNW 24.2 mph 28.8 mph N/A Snow Light Snow
4:54 PM 18.0 °F -0.2 °F 12.0 °F 78% 29.69 in 4.0 mi WNW 25.3 mph 32.2 mph N/A   Haze
5:15 PM 17.6 °F -1.6 °F 11.8 °F 78% 29.70 in 2.5 mi WNW 28.8 mph 33.4 mph N/A   Haze
5:35 PM 17.2 °F -0.0 °F 11.5 °F 78% 29.70 in 2.5 mi West 21.9 mph 27.6 mph N/A   Haze
5:54 PM 16.7 °F -1.1 °F 11.3 °F 79% 29.71 in 2.0 mi West 23.0 mph 34.5 mph N/A   Haze
6:15 PM 16.3 °F -3.6 °F 10.8 °F 79% 29.72 in 3.0 mi WNW 29.9 mph 35.7 mph N/A   Haze
6:34 PM 15.8 °F -4.7 °F 10.4 °F 79% 29.72 in 2.5 mi West 31.1 mph 38.0 mph N/A   Haze
6:55 PM 14.9 °F -4.9 °F 9.5 °F 79% 29.72 in 2.5 mi West 27.6 mph 33.4 mph N/A   Haze
7:14 PM 14.5 °F -4.7 °F 9.0 °F 79% 29.73 in 3.0 mi WNW 25.3 mph 34.5 mph N/A   Haze
7:34 PM 14.0 °F -4.3 °F 9.5 °F 82% 29.74 in 4.0 mi West 21.9 mph 26.5 mph N/A   Haze
7:55 PM 13.8 °F -6.1 °F 8.6 °F 80% 29.75 in 4.0 mi WNW 26.5 mph 33.4 mph N/A   Haze
8:14 PM 13.5 °F -5.0 °F 8.6 °F 81% 29.75 in 7.0 mi West 21.9 mph 31.1 mph N/A   Scattered Clouds
8:34 PM 13.1 °F -4.6 °F 8.6 °F 82% 29.75 in 7.0 mi WNW 19.6 mph 28.8 mph N/A   Mostly Cloudy
8:55 PM 13.5 °F -5.0 °F 9.5 °F 84% 29.75 in 3.0 mi WNW 21.9 mph 28.8 mph N/A Snow Light Snow
9:14 PM 13.1 °F -5.9 °F 9.5 °F 86% 29.77 in 3.0 mi WNW 23.0 mph 28.8 mph N/A Snow Light Snow
9:31 PM 13.1 °F -6.7 °F 9.1 °F 84% 29.77 in 2.5 mi WNW 25.3 mph 34.5 mph N/A   Overcast
9:54 PM 12.2 °F -8.9 °F 8.4 °F 85% 29.79 in 3.0 mi WNW 28.8 mph 36.8 mph N/A Snow Light Snow
10:14 PM 12.0 °F -8.1 °F 7.3 °F 81% 29.79 in 5.0 mi WNW 25.3 mph 35.7 mph N/A   Haze
10:34 PM 11.7 °F -10.0 °F 7.7 °F 84% 29.79 in 2.5 mi WNW 29.9 mph 35.7 mph N/A   Overcast
10:54 PM 11.3 °F -9.8 °F 7.3 °F 84% 29.80 in 2.0 mi WNW 27.6 mph 39.1 mph N/A   Overcast
11:14 PM 11.3 °F -8.3 °F 7.3 °F 84% 29.80 in 3.0 mi WNW 23.0 mph 34.5 mph N/A   Overcast
11:34 PM 11.1 °F -10.0 °F 7.3 °F 85% 29.80 in 2.0 mi WNW 27.6 mph 33.4 mph N/A   Overcast